Regional Weather Roundup
Issued by NWS

Home | Current Version | Previous Version | Text Only | Print | Product List | Glossary On
Versions: 1 2 3 4 5 6 7 8 9 10 11 12 13 14 15 16 17 18 19 20 21 22 23 24 25 26 27 28 29 30 31 32 33 34 35 36 37 38 39 40 41 42 43 44 45 46 47 48 49 50
000
ASUS46 KSTO 261509
RWRCA

NORTHERN AND CENTRAL CA REGIONAL WEATHER ROUNDUP
NATIONAL WEATHER SERVICE SACRAMENTO CA
800 AM PDT THU MAY 26 2016

NOTE: FAIR INDICATES FEW OR NO CLOUDS BELOW 12,000 FEET WITH NO
SIGNIFICANT WEATHER AND/OR OBSTRUCTIONS TO VISIBILITY.

CAZ001-003-261600-
NORTHWEST AREA

CITY           SKY/WX    TMP DP  RH WIND       PRES   REMARKS
CRESCENT CITY  MOSUNNY   54  52  93 NW6       30.19S
ARCATA         NOT AVBL
SHELTER COVE   NOT AVBL
UKIAH          SUNNY     55  49  80 CALM      30.09S
$$

CAZ006-505>513-261600-
BAY AREA

CITY           SKY/WX    TMP DP  RH WIND       PRES   REMARKS
SANTA ROSA     MOSUNNY   54  51  90 CALM      30.07S
SAN RAFAEL     N/A       MM  MM  MM MISG
NAPA           CLOUDY    56  52  86 W6        30.09R
CONCORD        MOSUNNY   60  49  66 S12       30.08R
OAKLAND CITY   N/A       MM  MM  MM MISG
OAKLAND        CLOUDY    59  50  72 S8        30.10S
SAN FRAN CITY  N/A       54  MM  84 MISG
SAN FRAN ARPT  PTSUNNY   57  46  66 S6        30.09S
LIVERMORE      MOSUNNY   57  48  72 CALM      30.08S
HAYWARD        CLOUDY    58  48  69 S7        30.09S
REDWOOD CITY   N/A       MM  MM  MM MISG
MOFFETT ARPT   SUNNY     58  48  69 VRB7      30.10S
SAN JOSE ARPT  MOSUNNY   58  49  72 SE6       30.10S
$$
CAZ034-037-514>518-261600-
CENTRAL COAST

CITY           SKY/WX    TMP DP  RH WIND       PRES   REMARKS
WATSONVILLE    CLOUDY    56  49  77 S6        30.13R
SALINAS        CLOUDY    55  49  80 SW10      30.13S
MONTEREY       CLOUDY    54  51  90 S3        30.14S
PT PIEDRAS BLS NOT AVBL
SAN LUIS OBISP MOSUNNY   57  50  77 CALM      30.12R
SANTA MARIA    CLOUDY    54  52  93 NW5       30.13R FOG
$$
CAZ015-016-261600-
NORTHERN SACRAMENTO VALLEY

CITY           SKY/WX    TMP DP  RH WIND       PRES   REMARKS
REDDING        SUNNY     63  51  65 N7        30.06S
RED BLUFF      SUNNY     65  55  70 VRB3      30.07S
OROVILLE       SUNNY     62  51  67 S5        30.07S
$$
CAZ016>018-261600-
SOUTHERN SACRAMENTO VALLEY

CITY           SKY/WX    TMP DP  RH WIND       PRES   REMARKS
AUBURN         SUNNY     59  52  77 CALM      30.07S
BEALE AFB      SUNNY     60  51  72 SE5       30.05R
LINCOLN        FAIR      59  50  72 SE5       30.05S
MARYSVILLE     SUNNY     59  52  77 VRB3      30.06S
SAC INTL ARPT  SUNNY     58  52  80 SE5       30.05R
MATHER AIRPORT SUNNY     57  52  82 SW6       30.06S
DOWNTOWN SAC   N/A       60  MM  MM MISG
SAC EXEC ARPT  SUNNY     58  52  80 VRB6      30.06S
VACAVILLE      SUNNY     61  52  72 CALM      30.06S
TRAVIS AFB     SUNNY     59  52  78 SW15      30.04R
$$
CAZ019>021-261600-
SAN JOAQUIN VALLEY

CITY           SKY/WX    TMP DP  RH WIND       PRES   REMARKS
STOCKTON       SUNNY     60  51  72 W7        30.06S
MODESTO        SUNNY     61  49  64 CALM      30.06R
MERCED         SUNNY     59  50  72 NW3       30.07R
LEMOORE        MOSUNNY   62  46  55 NW12      30.08R
FRESNO         MOSUNNY   60  48  64 W8        30.07R
HANFORD        SUNNY     61  47  59 VRB5      30.08R
PORTERVILLE    CLOUDY    62  50  64 CALM      30.09R
BAKERSFIELD    MOSUNNY   62  49  62 NW5       30.08R
$$
CAZ011-012-071-261600-
NORTHERN MOUNTAINS

CITY           SKY/WX    TMP DP  RH WIND       PRES   REMARKS
YREKA          SUNNY     50  42  74 NE5       30.18S
MOUNT SHASTA   SUNNY     54  42  64 VRB6      30.14F
ALTURAS        SUNNY     50  39  66 W3        30.15F
$$
CAZ011-012-071-261600-
SIERRA NEVADA MTNS

CITY           SKY/WX    TMP DP  RH WIND       PRES   REMARKS
BLUE CANYON    SUNNY     51  38  60 NE6       30.15S
TRUCKEE        CLOUDY    39  39 100 CALM      30.19R
TAHOE VLY ARPT MOSUNNY   38  36  92 CALM      30.17S
MAMMOTH LAKES  FAIR      44  37  75 CALM      30.18S
$$




USA.gov is the U.S. government's official web portal to all federal, state and local government web resources and services.